Track HINODE (SOLAR B) now! 10-day predictions HINODE (SOLAR B) is classified as:
1 29479U 06041A 25199.47455311 .00000561 00000-0 10638-3 0 9991 2 29479 98.0711 215.3678 0016172 266.1636 93.7720 14.67969783 5900